{"data":{"norad_id":64691,"intl_designator":"2025-140A","name":"LYRA-4","alt_names":[],"object_type":"PAYLOAD","status":"ACTIVE","operator":null,"country":"AUS","launch_date":"2025-06-28","launch_site_code":"RLLB","launch_vehicle":null,"mission":null,"orbit_class":"UNKNOWN","rcs_meters":null,"size_class":null,"mass_kg":null,"dimensions":null,"purposes":[],"wikipedia_slug":null,"has_3d_model":false,"image_url":null,"decayed_at":null,"tle_current":{"epoch":"2026-05-24T21:47:47.018112Z","epoch_age_seconds":93715,"freshness":"FRESH","line1":"1 64691U 25140A   26144.90818308  .00000963  00000+0  15648-3 0  9996","line2":"2 64691  96.0033 271.3806 0010660 285.8980  74.1057 14.72431077 48630","mean_motion":14.72431077,"eccentricity":0.001066,"inclination_deg":96.0033,"raan_deg":271.3806,"arg_perigee_deg":285.898,"mean_anomaly_deg":74.1057,"bstar":0.00015648,"rev_number":4863,"period_min":97.797446854621,"perigee_km":645.82230051443,"apogee_km":660.8133622149,"semimajor_km":7031.4548313647,"source":"CELESTRAK","updated_at":"2026-05-25T13:38:04.706852Z"}}}